Погода в Волховце

Россия / Новгородская область     58°32′46″N   31°19′48″E
темп.,
°C
ветер,
м/с
пор.,
м/с
влажн.,
%
обл.,
%
осадки,
мм/ч
давл.,
гПа
погр.,
м
18 мая, вт
вт1800:00+14з3696100 1.8 1007127
03:00+14всв3898100 1.9 1005151
06:00+16юв41296100 0.2 1003389
09:00+18юв41293100 2.5 1004626
12:00+22юв4875100 0.3 1004639
15:00+21ю497923 3.3 1004476
18:00+24юв2665100 1.3 1003753
21:00+18юв2288100 2.0 100322
19 мая, ср
ср1900:00+16вюв3985100 0.2 1003164
03:00+14вюв311848 0.2 1002238
06:00+16вюв513834 0.0 1001391
09:00+19юв611711 0.0 1001830
12:00+17ююв6118516 1.6 1001868
15:00+21ю611659 2.8 10021327
18:00+17ю5128661 4.1 1003597
21:00+15ююв31092100 4.6 1004305
20 мая, чт
чт2000:00+13ююв399768 0.0 1004212
03:00+12юз2599100 0.0 1004150
06:00+12зюз249291 0.0 1005292
09:00+11зсз2490100 0.2 1005321
12:00+12сз4684100 0.1 1005478
15:00+10зсз51097100 8.3 1004455
18:00+10сз4109499 0.3 1004609
21:00+9зсз51195100 0.9 1005576
21 мая, пт
пт2100:00+9зсз4109586 0.8 1007464
03:00+7з389551 0.8 1009174
06:00+8з38951 0.0 1010286
09:00+11зюз46734 0.0 1011576
12:00+15юз58545 0.0 10121581
15:00+16юз69398 0.0 10122143
18:00+14зюз58585 0.2 10121279
21:00+10юз39795 0.4 1014199
22 мая, сб
сб2200:00+7юз37850 0.0 1015136
03:00+6зюз23895 0.0 101648
06:00+7ю258660 0.0 1016162
09:00+11ю5868100 0.0 1017408
12:00+14ююв5756100 0.0 1016767
15:00+17ю6946100 0.0 10151785
18:00+17ю595294 0.0 10131300
21:00+14ююв4126563 0.0 1013463